Dewpoint
69 70 71 71 70 70 70 69 69 70 68 67 66 66 65 64 65 66 65 64 64 64 64 63 63 64 64 64 64 63 62 62 59 61 62 63 63 63 65 64 64 63 60
69 69 69 69 69 69 68 69 69 68 66 65 65 64 63 63 65 64 63 63 62 63 62 62 61 64 63 64 63 61 61 62 61 58 60 60 62 63 65 64 64 64 62
67 67 68 68 67 68 68 68 67 67 65 63 64 62 61 62 62 64 63 62 63 62 63 62 63 63 62 63 63 62 62 62 62 58 57 59 60 62 61 61 60 60 60
65 65 66 67 67 67 67 67 66 64 64 64 63 60 59 62 62 62 62 63 63 62 62 61 60 60 60 61 62 62 62 61 61 57 57 57 58 59 59 57 56 58 58
63 64 65 66 66 65 65 65 64 65 63 61 61 60 62 61 59 62 62 63 63 62 62 62 61 61 59 58 61 61 61 61 58 56 56 56 56 57 56 57 55 56 57
62 63 64 63 62 64 64 64 65 64 64 62 61 61 61 58 50 54 62 64 64 62 61 61 60 59 58 55 56 56 59 61 57 56 56 55 56 56 56 55 55 54 52
61 61 60 60 61 63 63 63 64 65 65 64 64 64 63 59 48 51 54 65 63 63 62 60 60 61 59 60 55 55 55 55 57 58 55 55 56 56 56 55 55 54 53
58 56 57 59 61 62 63 64 65 65 65 66 65 64 64 56 48 49 51 65 64 63 61 61 60 61 61 60 61 60 60 60 60 59 58 57 57 57 58 56 55 55 55
54 55 56 59 61 62 62 64 66 66 65 65 64 64 63 59 49 48 54 64 63 61 61 60 60 61 51 51 61 60 59 57 50 49 49 49 48 49 55 56 54 53 52
53 54 55 58 61 61 63 65 66 66 65 65 64 64 59 60 48 48 55 63 61 60 60 58 50 57 46 48 61 60 57 56 55 55 54 51 53 51 52 58 55 53 52
53 53 57 61 61 64 65 66 65 65 65 64 63 63 63 61 56 48 49 63 59 59 59 58 58 46 45 47 51 61 57 57 54 55 55 55 56 56 56 57 57 53 52
53 55 60 62 59 62 65 65 64 64 64 64 63 63 64 62 54 48 48 52 55 60 59 59 55 44 44 47 54 47 48 53 56 56 55 55 55 55 55 57 56 55 57
55 60 60 62 62 63 64 64 63 64 62 63 61 60 60 60 58 46 46 48 51 57 55 46 43 42 43 48 45 47 49 57 56 55 54 55 55 55 57 56 56 56 56
60 60 61 62 61 62 64 65 63 64 62 62 58 58 59 60 60 59 55 54 50 53 51 52 48 49 50 50 52 56 59 57 56 55 55 56 56 56 56 56 55 56 58
60 60 61 61 62 64 60 60 64 57 58 61 63 58 58 58 59 56 57 59 59 53 55 56 55 55 56 58 58 59 58 56 56 56 56 56 55 54 55 58 56 57 57
58 60 60 60 61 60 60 57 42 44 43 42 47 56 53 49 46 46 44 45 46 46 56 55 54 55 55 57 57 58 58 56 56 56 56 55 55 54 54 56 58 58 56
57 58 58 58 59 59 59 59 57 51 42 42 42 44 47 45 43 43 42 42 43 47 56 55 55 55 56 56 57 57 57 57 57 56 55 55 55 55 54 55 56 58 57
59 49 54 55 56 58 58 59 57 56 56 55 44 46 41 41 41 41 42 48 56 55 56 55 56 56 56 56 56 56 58 57 57 57 56 55 55 56 55 55 56 56 56
56 54 54 53 53 57 58 58 56 55 55 56 54 49 42 39 40 42 43 57 56 57 57 57 56 56 56 57 57 57 57 57 57 58 58 57 57 56 56 56 55 47 50
55 49 49 53 53 57 58 57 56 57 57 56 56 55 53 52 55 55 57 58 57 56 57 58 57 57 57 57 57 57 58 57 57 59 59 59 58 57 56 55 56 55 55
52 53 46 53 52 53 57 57 57 56 56 55 56 55 47 56 56 56 57 58 58 57 57 58 57 57 57 57 57 58 59 59 59 59 59 59 58 57 58 57 56 55 55
51 50 51 52 51 53 57 58 58 57 55 55 55 52 43 55 55 56 57 57 58 59 58 58 58 57 56 57 57 58 57 58 58 59 58 58 58 58 57 56 56 55 54
50 49 52 52 51 48 56 57 57 57 55 56 55 54 54 56 57 56 56 57 59 59 60 60 58 57 58 58 58 58 56 57 57 58 57 57 57 57 57 56 56 54 53
49 49 50 52 50 49 51 53 53 50 55 54 54 54 55 55 57 57 57 58 59 56 54 56 48 47 47 46 46 46 42 41 49 55 57 58 57 54 57 57 56 55 54
52 50 50 53 51 51 51 50 53 53 54 54 55 56 55 54 55 55 53 51 50 47 45 45 45 42 40 38 38 38 34 33 40 38 55 58 58 59 57 56 56 55 55
55 53 55 55 55 55 56 54 54 54 53 53 53 53 52 49 49 50 50 48 46 45 42 39 38 38 37 35 34 33 33 33 38 35 49 57 58 58 57 57 57 57 56
Lifted_Index
-6 -6 -7 -7 -6 -5 -5 -5 -5 -5 -4 -4 -3 -2 -2 -2 -2 -2 -2 -2 -2 -2 -2 -2 -2 -2 -2 -2 -2 -1 -1 -1 -1 -1 -1 -1 -1 -2 -2 -2 -1 -1 -1
-6 -6 -6 -6 -5 -5 -5 -5 -5 -4 -3 -3 -2 -2 -2 -1 -1 -2 -2 -2 -1 -2 -2 -2 -2 -2 -2 -2 -1 -1 -1 -1 -1 -1 -0 -0 -1 -2 -2 -2 -1 -1 -1
-6 -6 -5 -5 -4 -4 -4 -4 -4 -3 -3 -2 -2 -1 -1 -1 -1 -1 -2 -1 -1 -1 -1 -1 -1 -1 -1 -1 -1 -1 -1 -1 -1 -0 0 0 -0 -1 -1 -1 -1 -0 -0
-5 -5 -4 -4 -4 -4 -4 -3 -3 -2 -2 -2 -1 -1 -1 -1 -1 -1 -1 -1 -1 -1 -1 -0 0 0 0 -0 -1 -1 -1 -1 -1 0 1 1 0 -0 -0 -0 0 0 0
-4 -4 -4 -3 -3 -3 -3 -3 -2 -2 -2 -1 -1 -0 -0 -0 -0 -1 -1 -1 -1 -1 -0 1 1 1 1 1 0 -0 -1 -1 -0 0 1 1 1 0 0 0 1 1 1
-3 -3 -3 -3 -2 -2 -2 -2 -2 -2 -1 -1 -1 -0 0 0 0 -0 -1 -1 -1 -1 0 1 2 2 2 1 1 -0 -1 -1 -0 0 1 1 1 1 1 1 1 1 1
-2 -2 -2 -2 -2 -2 -2 -2 -2 -1 -1 -1 -1 -1 -0 1 1 1 -0 -1 -1 -1 0 2 2 2 1 1 1 -0 -1 -1 -0 1 1 1 1 1 1 1 1 1 1
-2 -1 -1 -1 -2 -2 -2 -1 -1 -1 -1 -1 -1 -1 -0 1 2 2 0 -1 -1 -1 1 2 2 1 1 1 0 -0 -0 0 0 1 1 2 2 1 1 1 1 2 2
-1 -1 -1 -1 -2 -2 -1 -1 -1 -1 -1 -1 -1 -1 -0 1 2 2 0 -1 -1 0 1 2 1 1 1 0 -0 -0 0 1 1 1 2 2 2 2 1 1 2 2 2
-1 -1 -1 -1 -2 -2 -2 -1 -1 -1 -1 -1 -1 -1 0 1 2 1 0 -0 0 1 2 2 2 1 1 1 0 0 1 2 2 2 2 2 2 2 2 2 2 2 2
-1 -1 -1 -2 -2 -2 -2 -2 -2 -2 -1 -1 -1 -1 0 1 2 1 1 0 1 2 2 2 2 2 1 1 0 1 1 2 2 3 3 3 2 2 2 2 2 2 2
-1 -2 -2 -2 -2 -2 -2 -2 -2 -1 -1 -1 -1 -0 0 1 2 2 2 1 1 2 2 2 2 2 1 1 1 1 2 2 3 3 3 3 3 3 3 3 3 3 3
-2 -2 -2 -2 -2 -2 -2 -2 -2 -1 -1 -1 -1 -0 0 1 2 2 2 2 2 2 2 2 2 2 2 1 1 1 2 3 3 3 3 3 3 3 3 3 4 4 4
-3 -3 -2 -2 -2 -2 -2 -2 -1 -1 -1 -1 -0 0 1 1 2 3 3 3 3 2 3 3 2 2 2 1 1 2 2 3 3 3 3 3 3 3 4 4 4 4 4
-3 -3 -2 -2 -2 -2 -1 -1 -1 -1 -0 -0 0 1 1 2 2 3 3 3 3 3 3 3 3 3 2 2 2 2 3 3 3 3 3 3 3 3 4 4 4 3 3
-2 -2 -2 -2 -2 -2 -1 -0 -0 0 0 0 1 1 2 2 3 3 3 3 4 4 4 3 3 3 3 3 3 3 3 3 3 3 3 3 3 3 4 4 3 3 2
-2 -2 -1 -2 -2 -1 -1 -0 0 1 1 1 1 1 2 3 3 4 4 4 4 4 4 4 3 3 3 3 3 3 3 3 3 3 3 3 3 3 3 3 3 2 1
-2 -1 -1 -1 -1 -1 -1 -0 0 1 1 1 1 2 2 3 3 4 4 4 4 4 4 4 4 3 3 3 3 3 3 3 3 3 3 3 3 3 3 2 2 1 0
-1 -1 -1 -1 -1 -1 -1 -1 -0 -0 0 1 1 2 3 3 3 3 4 4 4 4 4 4 4 3 3 3 3 3 3 3 3 3 2 2 2 2 2 1 1 0 0
-1 -1 -1 -1 -1 -1 -2 -2 -1 -1 -0 0 1 2 2 3 3 3 3 3 3 3 3 3 3 3 3 3 3 3 3 2 2 1 1 1 1 1 1 0 0 0 0
-1 -0 -0 -1 -1 -1 -2 -2 -2 -2 -1 -0 1 1 2 2 2 2 2 2 1 1 2 2 2 2 2 2 2 2 1 1 1 0 0 0 0 0 0 0 -0 -0 -0
-1 -0 -1 -1 -1 -1 -2 -3 -3 -2 -2 -1 0 1 1 1 1 1 1 1 1 1 0 1 1 1 1 1 1 1 0 0 -0 -0 -0 -0 -0 -0 -0 -0 -0 -0 -0
-1 -1 -1 -1 -1 -1 -2 -2 -3 -3 -2 -1 -0 1 1 0 0 0 0 0 0 -0 -0 -0 -0 -0 0 0 -0 -0 -0 -0 -1 -1 -1 -1 -1 -1 -1 -1 -1 -1 -1
-1 -1 -1 -1 -1 -1 -1 -2 -2 -2 -2 -1 -0 0 -0 -1 -1 -1 -1 -1 -1 -1 -1 -1 -1 -1 -1 -1 -1 -1 -1 -1 -1 -1 -1 -1 -1 -1 -1 -2 -1 -1 -1
-1 -1 -1 -1 -1 -1 -1 -1 -1 -1 -1 -1 -0 -0 -1 -1 -1 -1 -1 -1 -1 -1 -1 -1 -1 -1 -1 -1 -1 -1 -1 -1 -1 -1 -1 -1 -1 -1 -1 -1 -1 -1 -1
-1 -1 -1 -1 -1 -1 -1 -0 -0 -1 -1 -1 -0 -0 -1 -1 -1 -2 -2 -2 -1 -1 -1 -1 -1 -1 -1 -1 -0 -0 0 0 -0 -0 -1 -1 -1 -1 -1 -1 -1 -1 -1